ARIANE 44LP DEB, 26794

Orbit data source: Space-Track

ARIANE 44LP DEB, 26794 is space debris in HEO originally from a launch on Sat, 02 Mar 1991 UTC launched from the French Guiana (FRGUI). Debris objects in space refer to the collection of defunct objects orbiting the Earth. Examples of debris include non-operational satellites, rocket bodies, and fragments generated from explosions, collisions, or faulty payload assembly.

Loading next visibility...
Identifier
26794, 1991-015L
Orbit
HEO
Country
Flag of FRFR
Related business
Manufacturer
Unknown
Mission
Spacecraft
Bus & Motor
Unknown
Mass
Unknown
Launch date (UTC)
1991-03-02 (35 years ago)
Launch vehicle
Unknown
Launch site
French Guiana (FRGUI)
Object type
Payload
Rocket body
Debris
Shape & HBR
Unknown shape, 1.0 m
Radar Cross Section
Medium (>0.1 m² and <1 m²)

Expand to show TLE details & history
Last TLE update: 3 weeks ago

TLE from 3 weeks ago
0 ARIANE 44LP DEB
1 26794U 91015L   26152.59411734  .00000097  00000-0  25513-2 0  9998
2 26794   7.9193  25.7471 6615430 218.0130 348.7944  2.89506314127709
Epoch: 2026-06-01T14:15Z
TLE epoch observation values (Epoch: 2026-06-01T14:15:31.738Z)
Latitude
3.27004°
Longitude
77.64235°
Altitude
2,549.274 km
Speed
8.374 km/s
True Right ascension
12h 06m 24s
True Declination
3° 15' 16"
Sunlit
Object was in daylight at epoch
Visualization orbit readout
Latitude
Unknown
Longitude
Unknown
Altitude
Unknown
Speed
Unknown
Apparent Right ascension
Unknown
Apparent Declination
Unknown
Sunlit
N/A
Visualization observer readout
Local Sidereal Time
23:21:09
Azimuth
Unknown
Elevation
Unknown
Doppler factor
Unknown
Orbital elements
Apogee altitude
28,182.115 km
Perigee altitude
661.801 km
Semi-major axis
20,800.095 km
Eccentricity
0.66154
Inclination
7.9193°
RAAN
25.7471°
Arg. of periapsis
218.013°
True anomaly
297.96207°
Mean anomaly
348.7944°
Eccentric anomaly
329.63235°
Mean motion
0.72351 °/min
Orbital period
497.57 mins
BSTAR
0.0025513
Loading maneuver chart data...
Computing Atmospheric mass density...

Documentation

Showing up to 5 results
|